User: anonymous
Location: West Cummington
(42.4920°N, 72.9680°W)
Time: 16:01:06
(UTC-04:00)
Language:

Cosmos 841 Rocket - Orbit

View from above orbital plane
View from above orbital plane
View from above satellite
View from above satellite

Ground track
Ground track

The orbit data is extracted from the following two-line orbital elements,

1 09023U 76069B   14204.71780168  .00000088  00000-0  36853-4 0  4441
2 09023 074.0423 251.6371 0018859 316.8200 043.1475 14.39167279992386
Epoch (UTC): 23 July 2014 17:13:38
Eccentricity: 0.0018859
inclination: 74.0423°
perigee height: 748 km
apogee height: 775 km
right ascension of ascending node: 251.6371°
argument of perigee: 316.8200°
revolutions per day: 14.39167279
mean anomaly at epoch: 43.1475°
orbit number at epoch: 99238

The dashed part of the orbit path shows where the satellite is in the earth's shadow,  

DLR